Location: Franzen
(48.6167°N, 15.3833°E)
Time: 08:53:33
(UTC+00:00)

Cosmos 1570 Rocket - Pass Details

Date: 22 April 2021
Orbit: 763 x 788 km, 74.1° (Epoch: 16 May)

Event Time Altitude Azimuth Distance (km) Brightness Sun altitude
Rises 21:45:50 0° 333° (NNW) 3,268 8.5 -26.9°
Reaches altitude 10° 21:48:17 10° 329° (NNW) 2,332 7.4 -27.0°
Enters shadow 21:53:16 52° 259° (W) 953 4.4 -27.3°
